Regional Weather Roundup
Issued by NWS Newport/Morehead, NC

Current Version | Previous Version | Graphics & Text | Print | Product List | Glossary Off
Versions: 1 2 3 4 5 6 7 8 9 10 11 12 13 14 15 16 17 18 19 20 21 22 23 24 25 26 27 28 29 30 31 32 33 34 35 36 37 38 39 40 41 42 43 44 45 46 47 48 49 50

000
ASUS42 KMHX 012222
RWRMHX
WEATHER ROUNDUP FOR EASTERN NORTH CAROLINA
NATIONAL WEATHER SERVICE NEWPORT/MOREHEAD CITY NC
600 PM EDT FRI AUG 01 2014

NOTE: "FAIR" INDICATES FEW OR NO CLOUDS BELOW 12,000 FEET
WITH NO SIGNIFICANT WEATHER AND/OR OBSTRUCTIONS TO VISIBILITY

NCZ015>017-031-032-045>047-102-103-012300-
NORTH COAST

CITY           SKY/WX    TMP DP  RH WIND       PRES   REMARKS
EDENTON        CLOUDY    71  70  97 NE5       30.08F
ELIZABETH CITY CLOUDY    73  71  93 E7        30.10S
KITTY HAWK     LGT RAIN  72  71  96 SE6       30.09F
MANTEO         NOT AVBL

$$

NCZ045>047-081-094-103-104-012300-
CENTRAL COAST

CITY           SKY/WX    TMP DP  RH WIND       PRES   REMARKS
FRISCO         RAIN      74  73  97 SE12      30.10F FOG
SWANQUARTER      N/A     73 N/A N/A E7G16     30.03F

$$

NCZ095-097-098-100-101-012300-
SOUTHERN COAST

CITY           SKY/WX    TMP DP  RH WIND       PRES   REMARKS
BEAUFORT       CLOUDY    76  73  91 E10       30.06S
CEDAR ISLAND     N/A     75 N/A N/A E10G16    30.12S
JACKSONVILLE   CLOUDY    77  75  93 SE7       30.03F
NEWPORT        NOT AVBL
PINEY ISLAND   NOT AVBL
WILMINGTON     CLOUDY    79  71  76 S7        30.03S


$$

NCZ011>013-027>030-043-044-078>080-089-090>093-098-012300-
COASTAL PLAIN

CITY           SKY/WX    TMP DP  RH WIND       PRES   REMARKS
AHOSKIE        CLOUDY    67  65  92 NE6       30.10F
CLINTON        CLOUDY    76  76  99 CALM      30.02F
ELIZABETHTOWN  CLOUDY    78  75  91 SE3       30.01F
GOLDSBORO      LGT RAIN  72  72 100 VRB6G24   30.01F FOG
GREENVILLE     CLOUDY    70  68  94 NE7       30.08S
HAVELOCK       CLOUDY    76  73  91 E12       30.06F
KENANSVILLE    RAIN      76  73  91 E3        30.03F
KINSTON        CLOUDY    75  73  94 CALM      30.05F
NEW BERN       CLOUDY    77  73  88 E8        30.06F
RICHLANDS      CLOUDY    79  72  78 S7        30.04S
ROANOKE RAPIDS NOT AVBL
ROCKY MOUNT    LGT RAIN  68  66  93 NE8       30.07F FOG
WASHINGTON     CLOUDY    74  72  93 SE5       30.06F
WHITEVILLE     CLOUDY    79  73  81 S7        30.01S

$$

AMZ130-135-150-152-154-156-158-170-250-252-270-ANZ085-086-088-633-658-670-012300-
MARINE OBSERVATIONS

STATION/POSITION TIME  TEMP    WIND        PRES    WAVE   SWELL
                       AIR SEA DIR/SP/G            HT/PER HT/PER
                 (UTC) (F)     (DEG/KT/KT) (MB)    (FT/S) (FT/S)
CHESAPEAKE LIGHT NOT AVBL
BUOY 44014       2200   76 78   80/ 16/ 19 1019.2    4/ 5   2/10
DUCK             2200   73 76  150/ 18/ 19 1018.4
2E DUCK          2200                        N/A     4/ 5
OREGON INLET     2200   72 78  110/  7/  9 1019.2
BUOY 44095       2200      78                N/A     3/ 7
20E OREGON INLET NOT AVBL
HATTERAS CG      2200   75 79  130/  8/ 13 1019.5
DIAMOND BUOY     2200          VRB  4/  4  1019.8    3/ 6   3/ 6
CAPE LOOKOUT     2200   74      80/ 11/ 12 1018.0
BEAUFORT LAB     2200   75 80  100/  7/ 11 1017.5
30 SE NEW RIVER  2200   79 81  200/  6/  8 1017.9    4/ 5   3/ 5
5 SE WRIGHTSVILL 2200   76 81  200/ 10/ 12   N/A
BUOY 41002       2118   82 81  160/ 12/ 12 1019.4    4/ 8   3/ 8
BUOY 41004       2200   80 82  160/ 16/ 17 1014.3    5/ 6   2/12

$$



USA.gov is the U.S. government's official web portal to all federal, state and local government web resources and services.